OpenBCM V1.13 (Linux)

Packet Radio Mailbox

DB0FHN

[JN59NK Nuernberg]

 Login: GUEST





  
I0OJJ  > KEPS     28.02.26 02:33l 308 Lines 14717 Bytes #999 (0) @ AMSAT
BID : ORB26059.1
Read: OE5RCO DJ6UX GUEST
Subj: 2Line Orbital Elements 26059.AMSAT
Path: DB0FHN<DB0RKB<DK0WUE<PD0LPM<PI8ZTM<CX2SA<EA2RCF<I0OJJ
Sent: 260228/0021z @:I0OJJ.ITA.EU [Rome] obcm1.13-38-g65b7
From: I0OJJ @ I0OJJ.ITA.EU (Gustavo)
To:   KEPS @ AMSAT
X-Info: This message was generated automatically


QST de W1STR

AMSAT Orbital Elements for Amateur Satellites in TLE Format
From Orbital Analysis Office
New England Sci-Tech STEM Education Center
Natick MA February 28, 2026
To all radio amateurs


These element sets describe the orbits of various satellites 
in use by the amateur radio community. For details see:
www.amsat.org/keplerian-elements-formats/

A daily update of element sets is available at:
www.amsat.org/tle/daily-bulletin.txt
or without bulletin text:
www.amsat.org/tle/dailytle.txt


AO-07
1 07530U 74089B   26058.26236409 -.00000018  00000-0  18010-3 0  9999
2 07530 101.9971  70.3399 0012059 342.3149  83.5385 12.53696125346745
UO-11
1 14781U 84021B   26058.46930320  .00001706  00000-0  18049-3 0  9993
2 14781  97.7928  25.3753 0007503 175.3481 184.7808 14.90461873240784
AO-27
1 22825U 93061C   26058.42800560  .00000118  00000-0  61930-4 0  9997
2 22825  98.7005 125.8293 0009373  66.4847 293.7320 14.30909131691303
FO-29
1 24278U 96046B   26058.51803466 -.00000016  00000-0  19016-4 0  9991
2 24278  98.5397 282.3128 0350267  21.1442 340.3777 13.53268249458336
GO-32
1 25397U 98043D   26058.48442786  .00000099  00000-0  62750-4 0  9996
2 25397  99.0014  48.5080 0001731 136.0383 224.0933 14.24402745435718
ISS
1 25544U 98067A   26058.50986825  .00012441  00000-0  23882-3 0  9992
2 25544  51.6324 122.6808 0008329 139.0697 221.0918 15.48339371554750
NO-44
1 26931U 01043C   26058.43044403  .00000177  00000-0  97022-4 0  9991
2 26931  67.0511 168.1444 0007010 265.3817  94.6484 14.31905791274739
SO-50
1 27607U 02058C   26058.43316398  .00001619  00000-0  20885-3 0  9998
2 27607  64.5512 108.4929 0075012 282.5299  76.7423 14.82734882248181
CO-55
1 27844U 03031E   26058.51782432  .00000371  00000-0  17990-3 0  9995
2 27844  98.6778  68.4430 0010325 139.2498 220.9455 14.24256166176068
CO-57
1 27848U 03031J   26058.52193475  .00000306  00000-0  15347-3 0  9995
2 27848  98.6807  68.2479 0009901 156.0552 204.1088 14.23552751175773
RS-22
1 27939U 03042A   26058.80405304  .00001585  00000-0  25373-3 0  9996
2 27939  98.3429 240.0904 0010176 254.5828 163.0485 14.73220361199448
CO-58
1 28895U 05043F   26058.38562383  .00002117  00000-0  34305-3 0  9992
2 28895  98.2808 211.8164 0014146 189.7043 170.3892 14.72264636 85598
CO-65
1 32785U 08021C   26058.69591506  .00007155  00000-0  46617-3 0  9993
2 32785  97.8177  37.9908 0010545  48.4697 311.7433 15.08194801968681
CO-66
1 32791U 08021J   26058.71067831  .00019685  00000-0  70989-3 0  9992
2 32791  97.7503  51.7305 0003164  27.4061 332.7344 15.28569121970541
RS-30
1 32953U 08025A   26058.72851634  .00000073  00000-0  45309-3 0  9998
2 32953  82.4991  63.5229 0019169 186.9981 173.0834 12.43175684806092
SRMSAT
1 37841U 11058D   26058.52744618  .00000438  00000-0  94216-4 0  9997
2 37841  19.9732   3.2088 0011875  78.1384  77.4646 14.11543129742301
ZACUBE-1
1 39417U 13066B   26058.45880789  .00005406  00000-0  42983-3 0  9994
2 39417  97.8180  20.2327 0041161 254.7989 104.8681 15.00196192664279
Delfi-N3xt
1 39428U 13066N   26058.56412833  .00006864  00000-0  62214-3 0  9997
2 39428  97.8341 339.1074 0075666 210.3600 149.3227 14.93482858658255
GOMX-1
1 39430U 13066Q   26058.81255752  .00002423  00000-0  36974-3 0  9994
2 39430  97.6582 266.1330 0130792  68.9335 292.5800 14.69053497653856
LO-74
1 39440U 13066AA  26058.71083935  .00005692  00000-0  53709-3 0  9992
2 39440  97.8791   7.3701 0059776  31.6289 328.8500 14.92802412660656
AO-73
1 39444U 13066AE  26058.42100876  .00008615  00000-0  56054-3 0  9992
2 39444  97.8159  27.7883 0036191 214.5020 145.3858 15.07683447663110
DTUSAT-2
1 40030U 14033W   26058.41124237  .00008834  00000-0  49982-3 0  9991
2 40030  98.0829  49.3271 0006175 244.1422 115.9170 15.13304267636077
EO-80
1 40032U 14033Y   26058.48223706  .00008928  00000-0  50312-3 0  9994
2 40032  98.0718  48.6929 0007484 173.5025 186.6303 15.13438275636065
LILACSAT-2
1 40908U 15049K   26058.75271992  .00018221  00000-0  35484-3 0  9994
2 40908  97.4829  91.6349 0005656 295.1619  64.9044 15.47598985578805
Horyu-4
1 41340U 16012D   26058.62564277  .00078992  00000-0  89818-3 0  9994
2 41340  30.9912 138.2977 0001580  35.9890 324.0869 15.60934306553533
Lapan A3
1 41603U 16040E   26058.77250916  .00004061  00000-0  13245-3 0  9992
2 41603  97.1473  58.5887 0012062  54.6424 305.5944 15.32274978538053
CAS-2T
1 41847U 16066G   26058.45497820  .00001612  00000-0  23312-3 0  9997
2 41847  98.3906 135.4172 0343847 102.4291 261.5599 14.44431141488950
TechnoSat
1 42829U 17042E   26058.45004457  .00004683  00000-0  34016-3 0  9997
2 42829  97.4133 220.4236 0019254 108.1452 252.1873 15.04177316470201
AO-91
1 43017U 17073E   26058.66016633  .00010561  00000-0  48011-3 0  9995
2 43017  97.4881 288.1682 0156100 346.7955  12.9208 15.10610541448845
S-Net D
1 43186U 18014G   26058.63874471  .00005897  00000-0  31484-3 0  9999
2 43186  97.5447 324.1557 0009866  46.2359 313.9688 15.15468646442166
S-Net B
1 43187U 18014H   26058.64812010  .00005741  00000-0  30679-3 0  9995
2 43187  97.5455 324.1480 0010383  41.8510 318.3514 15.15441578442169
S-Net A
1 43188U 18014J   26058.30799758  .00006241  00000-0  33294-3 0  9994
2 43188  97.5462 323.9993 0010383  43.4191 316.7857 15.15471387442115
S-Net C
1 43189U 18014K   26058.45332928  .00006396  00000-0  34137-3 0  9991
2 43189  97.5480 324.2012 0011556  35.6756 324.5246 15.15432780440688
Ten-Koh
1 43677U 18084G   26058.51867029  .00003255  00000-0  25058-3 0  9995
2 43677  98.0791 246.2792 0011006 123.4654 236.7623 15.02384535399699
PO-101
1 43678U 18084H   26058.78230971  .00004138  00000-0  33838-3 0  9991
2 43678  98.1044 250.4124 0010840 157.6401 202.5296 14.99902220399815
QO-100
1 43700U 18090A   26058.66939074  .00000128  00000-0  00000+0 0  9997
2 43700   0.0135 120.9727 0002582 249.7068  53.5590  1.00272387 26573
MinXSS-2
1 43758U 18099A   26058.44954013  .00032916  00000-0  83661-3 0  9993
2 43758  97.4657 132.0765 0007359 301.1421  58.9102 15.39533966397203
AO-95
1 43770U 18099N   26058.40211233  .00013094  00000-0  54099-3 0  9992
2 43770  97.4542 119.1832 0009301  24.0143 336.1527 15.24092446396480
SNUSat 2
1 43782U 18099AA  26058.59493497  .00008838  00000-0  41360-3 0  9996
2 43782  97.4224 113.7241 0009512 326.2904  33.7725 15.19938836396374
SnugLite
1 43784U 18099AC  26058.10650587  .00013648  00000-0  55754-3 0  9997
2 43784  97.4040 113.5929 0001824 348.8376  11.2820 15.24499067396533
ITASat 1
1 43786U 18099AE  26058.09281976  .00008604  00000-0  43179-3 0  9993
2 43786  97.4201 111.8372 0013257  23.3378 336.8455 15.17473339396207
EAGLET 1
1 43790U 18099AJ  26058.09836825  .00005039  00000-0  29691-3 0  9999
2 43790  97.4397 110.6690 0011427  14.1044 346.0503 15.11982100395697
ESEO
1 43792U 18099AL  26058.54176945  .00001952  00000-0  14592-3 0  9995
2 43792  97.4115 100.5681 0011937 353.5520   6.5551 15.03853893395328
JO-97
1 43803U 18099AX  26058.61498025  .00016977  00000-0  58898-3 0  9992
2 43803  97.4284 121.2942 0004699 304.1431  55.9364 15.29856660396850
Suomi 100
1 43804U 18099AY  26058.12425117  .00014414  00000-0  56809-3 0  9995
2 43804  97.4347 119.0637 0009175 312.9660  47.0808 15.25653199396620
ISAT
1 43879U 18111D   26058.71976956  .00051955  00000-0  93324-3 0  9993
2 43879  97.5899 346.9371 0005391  16.5978 343.5448 15.49704112394132
UWE-4
1 43880U 18111E   26058.34083062  .00033557  00000-0  86242-3 0  9990
2 43880  97.5852 342.2596 0009618  16.8007 343.3555 15.39170696393840
Sparrow
1 43881U 18111F   26058.30855593  .00070012  00000-0  11114-2 0  9995
2 43881  97.6112 350.7993 0006411  52.8623 307.3214 15.53100656394217
Prox-1
1 44339U 19036A   26058.30520573  .00016390  00000-0  17253-2 0  9997
2 44339  23.9950 126.6815 0006616 195.2376 164.7924 14.87676866357078
Taurus 1
1 44530U 19059C   26058.76111693  .00011860  00000-0  19555-2 0  9998
2 44530  98.6286 216.9770 0008189 290.1441  69.8882 14.70612498342558
TO-108
1 44881U 19093C   26058.72213426  .00000802  00000-0  96949-4 0  9996
2 44881  97.7634 133.5958 0015142  87.2771 273.0178 14.86314994335156
FloripaSat 1
1 44885U 19093G   26058.72818160  .00008882  00000-0  67130-3 0  9991
2 44885  97.7921 152.2853 0012670  82.7122 277.5543 15.02540422336202
RS-44
1 44909U 19096E   26058.47495580  .00000031  00000-0  77388-4 0  9995
2 44909  82.5181  52.6042 0218326  41.1417 320.5915 12.79747310288310
SALSAT
1 46495U 20068K   26058.52304130  .00009870  00000-0  36443-3 0  9990
2 46495  97.8846  55.0656 0009265 338.3286  21.7559 15.27940511298603
CSS (TIANHE-1)
1 48274U 21035A   26058.66722720  .00021477  00000-0  25948-3 0  9991
2 48274  41.4656 269.1240 0006216 208.9469 151.1026 15.60189506276046
CUTE
1 49263U 21088D   26058.52058492  .00044051  00000-0  43709-3 0  9999
2 49263  97.4238 150.1632 0003216 358.4826   1.6424 15.65666624245280
TeikyoSat 4
1 49396U 21102B   26058.53035640  .00001718  00000-0  11223-3 0  9993
2 49396  97.3812  92.2332 0010850 316.7018  43.3358 15.09059687236180
Z-Sat
1 49399U 21102E   26058.76079294  .00005261  00000-0  26650-3 0  9991
2 49399  97.3488  97.3939 0015144 269.2899  90.6600 15.17306631236842
KOSEN 1
1 49402U 21102H   26058.57153779  .00008108  00000-0  32595-3 0  9994
2 49402  97.3358 102.8979 0012925 230.1024 129.9078 15.25106166237307
HO-113
1 50466U 21131B   26058.78456264  .00000805  00000-0  26287-3 0  9993
2 50466  98.4965 151.7967 0005199  73.6698 286.5062 14.41236535219356
SNUGLITE 2
1 52899U 22065F   26058.62548490  .00001245  00000-0  24627-3 0  9993
2 52899  98.2011 203.7714 0007577  16.9984 343.1471 14.64096030194968
